GW1753 Weather Reports


Display with metric or nautical units.
time (UTC)temp
F
wind
direction
speed
MPH
gust
MPH
rain 1hr
in
rain 24hr
in
rain mn
in
humidity
%
barometer
mb
20260904195608 75 321 9.0 13.0 0.00 0.00 0.00 34 1014.0
20260904195107 75 303 7.0 13.0 0.00 0.00 0.00 34 1014.1
20260904194602 75 293 9.0 14.0 0.00 0.00 0.00 33 1013.9
20260904194057 75 317 8.0 10.0 0.00 0.00 0.00 33 1013.8
20260904193557 75 309 8.0 11.0 0.00 0.00 0.00 34 1013.9
20260904193054 75 308 8.0 13.0 0.00 0.00 0.00 35 1013.5
20260904192553 73 235 4.0 9.0 0.00 0.00 0.00 37 1013.8
20260904192049 74 265 7.0 11.0 0.00 0.00 0.00 36 1013.7
20260904191546 73 350 6.0 13.0 0.00 0.00 0.00 36 1013.7
20260904191042 73 295 8.0 14.0 0.00 0.00 0.00 37 1013.3
20260904190537 73 292 7.0 16.0 0.00 0.00 0.00 36 1013.2
20260904190033 72 286 7.0 11.0 0.00 0.00 0.00 37 1013.2
20260904185529 73 291 6.0 9.0 0.00 0.00 0.00 36 1013.2
20260904185025 71 275 4.0 11.0 0.00 0.00 0.00 39 1013.3
20260904184524 70 272 9.0 14.0 0.00 0.00 0.00 40 1013.4
20260904184019 68 289 6.0 10.0 0.00 0.00 0.00 42 1013.2
20260904183514 69 309 6.0 9.0 0.00 0.00 0.00 42 1013.3
20260904183010 68 282 3.0 10.0 0.00 0.00 0.00 43 1013.1
20260904182506 67 299 5.0 13.0 0.00 0.00 0.00 43 1013.3
20260904182005 67 317 2.0 9.0 0.00 0.00 0.00 45 1013.2
20260904181501 66 310 7.0 10.0 0.00 0.00 0.00 44 1013.3
20260904180956 66 294 7.0 10.0 0.00 0.00 0.00 44 1013.3
20260904180456 65 325 6.0 10.0 0.00 0.00 0.00 46 1013.0
20260904175955 65 306 7.0 9.0 0.00 0.00 0.00 45 1013.2
20260904175450 64 268 6.0 13.0 0.00 0.00 0.00 46 1013.3
20260904174949 65 260 8.0 10.0 0.00 0.00 0.00 45 1013.3
20260904174444 64 253 6.0 10.0 0.00 0.00 0.00 47 1013.4
20260904173941 64 274 6.0 10.0 0.00 0.00 0.00 48 1013.2
20260904173441 63 287 6.0 10.0 0.00 0.00 0.00 50 1013.1
20260904172936 63 267 4.0 11.0 0.00 0.00 0.00 51 1013.1
20260904172431 63 239 5.0 9.0 0.00 0.00 0.00 52 1012.9
20260904171926 62 301 5.0 9.0 0.00 0.00 0.00 53 1012.8
20260904171421 62 269 6.0 10.0 0.00 0.00 0.00 54 1012.9
20260904170918 63 243 3.0 9.0 0.00 0.00 0.00 54 1012.8
20260904170413 63 231 4.0 8.0 0.00 0.00 0.00 52 1012.7
20260904165908 63 292 6.0 10.0 0.00 0.00 0.00 53 1012.6
20260904165407 63 302 2.0 4.0 0.00 0.00 0.00 51 1012.3
20260904164907 63 259 2.0 8.0 0.00 0.00 0.00 51 1012.4
20260904164406 63 299 4.0 7.0 0.00 0.00 0.00 52 1012.4
20260904163903 63 269 5.0 7.0 0.00 0.00 0.00 51 1012.4
20260904163402 62 288 6.0 8.0 0.00 0.00 0.00 50 1012.3
20260904162902 62 314 5.0 9.0 0.00 0.00 0.00 50 1012.3
20260904162357 62 301 2.0 8.0 0.00 0.00 0.00 51 1012.2
20260904161852 61 279 4.0 7.0 0.00 0.00 0.00 52 1012.0
20260904161347 61 273 6.0 8.0 0.00 0.00 0.00 53 1012.2
20260904160843 60 257 4.0 8.0 0.00 0.00 0.00 54 1012.1
20260904160338 60 294 6.0 9.0 0.00 0.00 0.00 56 1012.0
20260904155833 60 281 6.0 9.0 0.00 0.00 0.00 57 1011.9
20260904155327 60 325 7.0 11.0 0.00 0.00 0.00 58 1011.9
20260904154826 60 310 6.0 10.0 0.00 0.00 0.00 61 1011.8
20260904154321 59 270 5.0 8.0 0.00 0.00 0.00 61 1011.7
20260904153817 58 267 3.0 8.0 0.00 0.00 0.00 60 1011.5
20260904153312 57 255 4.0 7.0 0.00 0.00 0.00 62 1011.8
20260904152809 56 252 1.0 7.0 0.00 0.00 0.00 64 1011.6
20260904152306 55 268 3.0 7.0 0.00 0.00 0.00 65 1011.1
20260904151758 55 250 3.0 4.0 0.00 0.00 0.00 67 1011.0
20260904151257 55 250 3.0 4.0 0.00 0.00 0.00 67 1010.8
20260904150754 55 243 5.0 7.0 0.00 0.00 0.00 66 1011.0
20260904150248 56 277 2.0 6.0 0.00 0.00 0.00 65 1010.7
20260904145746 58 246 2.0 2.0 0.00 0.00 0.00 56 1010.6
20260904145242 58 279 0.0 0.0 0.00 0.00 0.00 56 1010.5
20260904144737 57 336 0.0 1.0 0.00 0.00 0.00 56 1010.3
20260904144233 56 340 0.0 0.0 0.00 0.00 0.00 57 1010.0
20260904143728 56 44 1.0 2.0 0.00 0.00 0.00 57 1009.9
20260904143225 56 45 1.0 3.0 0.00 0.00 0.00 58 1009.9
20260904142721 55 343 1.0 2.0 0.00 0.00 0.00 60 1010.0
20260904142217 55 262 0.0 1.0 0.00 0.00 0.00 62 1010.3
20260904141716 56 280 0.0 1.0 0.00 0.00 0.00 59 1010.2
20260904141212 57 83 4.0 7.0 0.00 0.00 0.00 56 1010.0
20260904140708 57 68 8.0 9.0 0.00 0.00 0.00 56 1009.7
20260904140203 56 44 6.0 7.0 0.00 0.00 0.00 57 1010.0
20260904135701 56 56 0.0 0.0 0.00 0.00 0.00 58 1010.4
20260904135157 56 263 0.0 0.0 0.00 0.00 0.00 59 1010.6
20260904134653 56 38 2.0 3.0 0.00 0.00 0.00 57 1010.3
20260904134152 56 29 0.0 2.0 0.00 0.00 0.00 57 1010.5
20260904133647 55 357 0.0 0.0 0.00 0.00 0.00 61 1010.6
20260904133143 54 279 0.0 0.0 0.00 0.00 0.00 63 1010.6
20260904132642 53 332 0.0 1.0 0.00 0.00 0.00 63 1010.7
20260904132138 53 301 0.0 0.0 0.00 0.00 0.00 65 1010.8
20260904131637 52 310 0.0 0.0 0.00 0.00 0.00 64 1010.6
20260904131133 51 325 0.0 1.0 0.00 0.00 0.00 66 1010.4
20260904130633 51 287 0.0 0.0 0.00 0.00 0.00 68 1010.4
20260904130132 51 284 0.0 0.0 0.00 0.00 0.00 69 1010.5
20260904125630 51 268 0.0 1.0 0.00 0.00 0.00 68 1010.6
20260904125125 51 257 1.0 1.0 0.00 0.00 0.00 67 1010.4
20260904124624 51 233 0.0 0.0 0.00 0.00 0.00 66 1009.9
20260904124120 51 233 0.0 0.0 0.00 0.00 0.00 66 1010.0
20260904123620 52 230 0.0 1.0 0.00 0.00 0.00 63 1010.0
20260904123116 53 195 0.0 0.0 0.00 0.00 0.00 61 1010.0
20260904122611 56 59 1.0 3.0 0.00 0.00 0.00 56 1009.7
20260904122106 56 22 2.0 3.0 0.00 0.00 0.00 55 1009.7
20260904121601 56 61 3.0 4.0 0.00 0.00 0.00 56 1009.7
20260904121057 55 40 2.0 3.0 0.00 0.00 0.00 56 1009.9
20260904120553 54 43 1.0 3.0 0.00 0.00 0.00 59 1009.8
20260904120048 53 270 0.0 0.0 0.00 0.00 0.00 61 1009.9
20260904115543 54 291 0.0 0.0 0.00 0.00 0.00 60 1009.8
20260904115038 54 48 2.0 4.0 0.00 0.00 0.00 57 1009.8
20260904114538 54 98 3.0 3.0 0.00 0.00 0.00 59 1009.9
20260904114038 55 46 3.0 4.0 0.00 0.00 0.00 58 1009.9
20260904113533 54 125 1.0 1.0 0.00 0.00 0.00 60 1009.9
20260904113033 54 62 1.0 2.0 0.00 0.00 0.00 60 1009.9
20260904112528 53 185 0.0 0.0 0.00 0.00 0.00 60 1009.9
20260904112024 54 63 0.0 2.0 0.00 0.00 0.00 58 1010.0
20260904111520 55 160 0.0 0.0 0.00 0.00 0.00 58 1010.0
20260904111015 56 43 1.0 6.0 0.00 0.00 0.00 56 1010.0
20260904110514 56 40 3.0 6.0 0.00 0.00 0.00 55 1010.3
20260904110010 56 55 5.0 8.0 0.00 0.00 0.00 55 1010.3
20260904105504 56 55 4.0 7.0 0.00 0.00 0.00 55 1010.3
20260904104959 56 45 4.0 7.0 0.00 0.00 0.00 55 1010.3
20260904104454 56 55 4.0 7.0 0.00 0.00 0.00 55 1010.3
20260904103950 55 65 3.0 4.0 0.00 0.00 0.00 56 1010.5
20260904103446 56 52 2.0 6.0 0.00 0.00 0.00 55 1010.5
20260904102942 56 72 5.0 6.0 0.00 0.00 0.00 56 1010.5
20260904102437 55 52 4.0 6.0 0.00 0.00 0.00 57 1010.5
20260904101932 56 64 5.0 7.0 0.00 0.00 0.00 54 1010.6
20260904101429 55 69 2.0 3.0 0.00 0.00 0.00 57 1010.7
20260904100925 56 57 5.0 7.0 0.00 0.00 0.00 54 1010.6
20260904100421 56 69 4.0 7.0 0.00 0.00 0.00 54 1010.8
20260904095920 56 82 2.0 3.0 0.00 0.00 0.00 55 1010.8
20260904095415 56 70 2.0 4.0 0.00 0.00 0.00 54 1010.8
20260904094910 56 71 4.0 4.0 0.00 0.00 0.00 53 1010.8
20260904094405 56 46 4.0 7.0 0.00 0.00 0.00 54 1010.8
20260904093901 56 35 3.0 6.0 0.00 0.00 0.00 54 1010.8
20260904093401 55 49 5.0 9.0 0.00 0.00 0.00 55 1011.0
20260904092857 54 53 5.0 7.0 0.00 0.00 0.00 57 1011.0
20260904092353 55 107 0.0 2.0 0.00 0.00 0.00 57 1011.0
20260904091849 55 87 1.0 2.0 0.00 0.00 0.00 57 1011.0
20260904091344 55 50 2.0 3.0 0.00 0.00 0.00 56 1011.0
20260904090839 55 48 4.0 4.0 0.00 0.00 0.00 56 1011.0
20260904090335 55 55 4.0 6.0 0.00 0.00 0.00 56 1011.0
20260904085830 55 41 4.0 6.0 0.00 0.00 0.00 56 1011.4
20260904085325 55 52 3.0 4.0 0.00 0.00 0.00 56 1011.4
20260904084820 56 57 3.0 3.0 0.00 0.00 0.00 56 1011.5
20260904084316 56 51 3.0 4.0 0.00 0.00 0.00 56 1011.4
20260904083812 56 33 2.0 4.0 0.00 0.00 0.00 55 1011.5
20260904083308 56 49 3.0 6.0 0.00 0.00 0.00 55 1011.7
20260904082809 56 58 3.0 4.0 0.00 0.00 0.00 56 1011.6
20260904082305 56 44 4.0 4.0 0.00 0.00 0.00 55 1011.7
20260904081758 56 47 3.0 4.0 0.00 0.00 0.00 55 1011.7
20260904081254 55 24 4.0 6.0 0.00 0.00 0.00 57 1011.8
20260904080749 55 56 4.0 6.0 0.00 0.00 0.00 57 1011.9
20260904080245 56 49 3.0 4.0 0.00 0.00 0.00 56 1011.8
20260904075742 56 58 2.0 3.0 0.00 0.00 0.00 56 1012.2
20260904075236 56 60 1.0 2.0 0.00 0.00 0.00 56 1012.2
20260904074736 55 68 1.0 3.0 0.00 0.00 0.00 57 1012.4
20260904074230 53 294 0.0 0.0 0.00 0.00 0.00 61 1012.2
20260904073726 54 284 0.0 0.0 0.00 0.00 0.00 60 1012.2
20260904073222 55 284 0.0 0.0 0.00 0.00 0.00 60 1012.3
20260904072718 55 284 0.0 0.0 0.00 0.00 0.00 59 1012.4
20260904072212 55 284 0.0 0.0 0.00 0.00 0.00 60 1012.7
20260904071708 55 284 0.0 0.0 0.00 0.00 0.00 60 1012.8
20260904071203 56 284 0.0 0.0 0.00 0.00 0.00 58 1012.7
20260904070702 56 283 0.0 0.0 0.00 0.00 0.00 57 1012.6
20260904070201 57 0 0.0 0.0 0.00 0.00 0.00 55 1012.4
20260904065656 57 49 0.0 1.0 0.00 0.00 0.00 55 1012.6
20260904065154 58 48 2.0 3.0 0.00 0.00 0.00 55 1012.7
20260904064653 59 67 1.0 2.0 0.00 0.00 0.00 54 1012.6
20260904064148 58 43 0.0 4.0 0.00 0.00 0.00 55 1012.6
20260904063644 58 110 1.0 1.0 0.00 0.00 0.00 56 1012.4
20260904063139 58 274 0.0 2.0 0.00 0.00 0.00 56 1012.3
20260904062636 58 320 0.0 1.0 0.00 0.00 0.00 56 1012.6
20260904062131 58 331 0.0 2.0 0.00 0.00 0.00 56 1012.6
20260904061627 58 319 0.0 1.0 0.00 0.00 0.00 55 1012.2
20260904061123 58 344 0.0 2.0 0.00 0.00 0.00 55 1012.3
20260904060619 59 338 1.0 2.0 0.00 0.00 0.00 54 1012.3
20260904060116 59 334 1.0 1.0 0.00 0.00 0.00 53 1012.3
20260904055615 60 325 0.0 1.0 0.00 0.00 0.00 53 1012.4
20260904055111 60 319 0.0 2.0 0.00 0.00 0.00 52 1012.6
20260904054606 60 335 1.0 2.0 0.00 0.00 0.00 52 1012.4
20260904054102 60 352 0.0 1.0 0.00 0.00 0.00 52 1012.6
20260904053601 60 340 0.0 1.0 0.00 0.00 0.00 52 1012.6
20260904053057 60 334 0.0 3.0 0.00 0.00 0.00 51 1012.7
20260904052554 60 337 2.0 3.0 0.00 0.00 0.00 51 1012.8
20260904052049 60 328 1.0 3.0 0.00 0.00 0.00 51 1012.9
20260904051546 60 334 1.0 2.0 0.00 0.00 0.00 51 1012.8
20260904051045 60 320 0.0 2.0 0.00 0.00 0.00 51 1013.0
20260904050541 60 339 0.0 4.0 0.00 0.00 0.00 50 1013.0
20260904050037 60 346 1.0 3.0 0.00 0.00 0.00 51 1013.2
20260904045532 60 333 1.0 3.0 0.00 0.00 0.00 51 1013.2
20260904045026 60 331 1.0 3.0 0.00 0.00 0.00 51 1013.1
20260904044522 60 329 0.0 3.0 0.00 0.00 0.00 51 1013.1
20260904044018 61 346 1.0 2.0 0.00 0.00 0.00 50 1013.3
20260904043514 61 343 2.0 2.0 0.00 0.00 0.00 49 1012.9
20260904043010 61 336 0.0 2.0 0.00 0.00 0.00 49 1013.2
20260904042506 60 344 1.0 3.0 0.00 0.00 0.00 50 1013.2
20260904042001 60 316 1.0 3.0 0.00 0.00 0.00 50 1013.1
20260904041457 60 331 0.0 2.0 0.00 0.00 0.00 51 1013.2
20260904040953 60 329 1.0 2.0 0.00 0.00 0.00 51 1013.2
20260904040453 59 324 0.0 1.0 0.00 0.00 0.00 51 1013.3
20260904035949 59 328 0.0 2.0 0.00 0.00 0.00 52 1013.2
20260904035445 59 346 0.0 3.0 0.00 0.00 0.00 52 1013.1
20260904034944 59 337 1.0 2.0 0.00 0.00 0.00 52 1013.1
20260904034439 59 333 1.0 3.0 0.00 0.00 0.00 51 1013.0
20260904033935 60 342 3.0 4.0 0.00 0.00 0.00 51 1012.8
20260904033431 60 328 2.0 2.0 0.00 0.00 0.00 51 1012.9
20260904032927 60 346 0.0 2.0 0.00 0.00 0.00 50 1012.9
20260904032422 60 337 2.0 3.0 0.00 0.00 0.00 51 1013.0
20260904031921 60 332 1.0 6.0 0.00 0.00 0.00 51 1013.1
20260904031417 60 352 0.0 2.0 0.00 0.00 0.00 50 1012.8
20260904030913 61 350 0.0 3.0 0.00 0.00 0.00 49 1013.0
20260904030413 61 333 0.0 3.0 0.00 0.00 0.00 48 1013.0
20260904025908 62 309 2.0 4.0 0.00 0.00 0.00 47 1012.7
20260904025405 62 318 2.0 3.0 0.00 0.00 0.00 47 1012.8
20260904024904 62 339 2.0 4.0 0.00 0.00 0.00 47 1012.8
20260904024359 62 324 1.0 3.0 0.00 0.00 0.00 47 1012.7
20260904023856 63 340 1.0 3.0 0.00 0.00 0.00 46 1012.6
20260904023352 64 341 2.0 6.0 0.00 0.00 0.00 45 1012.6
20260904022850 63 328 1.0 3.0 0.00 0.00 0.00 45 1012.3
20260904022348 63 322 0.0 3.0 0.00 0.00 0.00 45 1012.3
20260904021844 63 336 1.0 3.0 0.00 0.00 0.00 45 1012.3
20260904021344 64 334 0.0 2.0 0.00 0.00 0.00 45 1012.4
20260904020840 65 345 1.0 2.0 0.00 0.00 0.00 44 1012.2
20260904020335 65 352 0.0 3.0 0.00 0.00 0.00 43 1012.1
20260904015833 65 7 0.0 2.0 0.00 0.00 0.00 43 1012.0
20260904015329 66 330 0.0 2.0 0.00 0.00 0.00 43 1012.1
20260904014827 67 328 0.0 2.0 0.00 0.00 0.00 42 1011.9
20260904014323 68 323 0.0 1.0 0.00 0.00 0.00 40 1012.1
20260904013818 69 316 0.0 1.0 0.00 0.00 0.00 39 1011.8
20260904013314 70 321 1.0 4.0 0.00 0.00 0.00 37 1011.7
20260904012811 71 339 1.0 4.0 0.00 0.00 0.00 37 1011.7
20260904012311 71 328 4.0 6.0 0.00 0.00 0.00 35 1011.9
20260904011809 72 339 2.0 4.0 0.00 0.00 0.00 35 1011.9
20260904011306 72 351 2.0 4.0 0.00 0.00 0.00 35 1012.0
20260904010805 73 342 5.0 9.0 0.00 0.00 0.00 34 1012.1
20260904010303 74 324 6.0 10.0 0.00 0.00 0.00 33 1011.9
20260904005803 75 340 0.0 6.0 0.00 0.00 0.00 32 1012.0
20260904005258 75 326 4.0 7.0 0.00 0.00 0.00 31 1011.8
20260904004753 76 345 1.0 4.0 0.00 0.00 0.00 31 1011.8
20260904004249 76 4 6.0 7.0 0.00 0.00 0.00 30 1011.6
20260904003743 77 323 3.0 9.0 0.00 0.00 0.00 30 1011.8
20260904003240 77 264 0.0 2.0 0.00 0.00 0.00 29 1011.6
20260904002735 77 316 1.0 3.0 0.00 0.00 0.00 29 1011.9
20260904002232 76 322 5.0 10.0 0.00 0.00 0.00 29 1011.9
20260904001726 75 320 3.0 4.0 0.00 0.00 0.00 31 1011.8
20260904001225 75 324 2.0 6.0 0.00 0.00 0.00 31 1012.0
20260904000720 77 264 3.0 8.0 0.00 0.00 0.00 28 1011.6
20260904000216 78 253 2.0 13.0 0.00 0.00 0.00 29 1011.6
20260903235715 78 280 3.0 4.0 0.00 0.00 0.00 28 1011.6
20260903235212 78 325 2.0 7.0 0.00 0.00 0.00 28 1011.5
20260903234706 78 316 1.0 9.0 0.00 0.00 0.00 29 1011.7
20260903234203 78 275 4.0 8.0 0.00 0.00 0.00 25 1011.6
20260903233658 78 309 2.0 9.0 0.00 0.00 0.00 26 1011.5
20260903233154 78 244 4.0 8.0 0.00 0.00 0.00 26 1011.4
20260903232653 78 254 4.0 8.0 0.00 0.00 0.00 25 1011.5
20260903232149 78 248 4.0 9.0 0.00 0.00 0.00 26 1011.5
20260903231648 79 270 7.0 11.0 0.00 0.00 0.00 26 1011.1
20260903231148 78 264 4.0 14.0 0.00 0.00 0.00 26 1011.5
20260903230644 79 272 2.0 9.0 0.00 0.00 0.00 27 1011.2
20260903230144 78 287 9.0 15.0 0.00 0.00 0.00 26 1011.4
20260903225640 79 317 8.0 13.0 0.00 0.00 0.00 26 1011.4
20260903225137 78 255 6.0 9.0 0.00 0.00 0.00 27 1011.4
20260903224632 78 266 6.0 14.0 0.00 0.00 0.00 27 1011.4
20260903224129 78 242 11.0 14.0 0.00 0.00 0.00 26 1011.4
20260903223624 78 261 4.0 15.0 0.00 0.00 0.00 28 1011.4
20260903223121 78 340 5.0 9.0 0.00 0.00 0.00 28 1011.5
20260903222617 78 246 9.0 16.0 0.00 0.00 0.00 27 1011.5
20260903222115 78 301 10.0 16.0 0.00 0.00 0.00 27 1011.1
20260903221611 78 234 10.0 17.0 0.00 0.00 0.00 27 1011.4
20260903221109 78 235 8.0 11.0 0.00 0.00 0.00 27 1011.2
20260903220609 78 220 7.0 19.0 0.00 0.00 0.00 27 1011.2
20260903220108 79 267 9.0 13.0 0.00 0.00 0.00 27 1011.0
20260903215607 78 275 9.0 16.0 0.00 0.00 0.00 28 1011.0
20260903215102 78 215 11.0 15.0 0.00 0.00 0.00 27 1010.9
20260903214601 78 255 10.0 15.0 0.00 0.00 0.00 27 1011.0
20260903214056 78 293 10.0 15.0 0.00 0.00 0.00 27 1010.9
20260903213552 78 255 7.0 13.0 0.00 0.00 0.00 28 1010.9
20260903213047 78 240 10.0 16.0 0.00 0.00 0.00 28 1010.9
20260903212543 78 292 8.0 14.0 0.00 0.00 0.00 27 1010.8
20260903212038 78 249 11.0 18.0 0.00 0.00 0.00 28 1010.8
20260903211533 78 231 11.0 19.0 0.00 0.00 0.00 28 1010.7
20260903211030 79 265 7.0 15.0 0.00 0.00 0.00 28 1010.8
20260903210530 79 243 12.0 18.0 0.00 0.00 0.00 28 1010.7
20260903210027 79 257 5.0 15.0 0.00 0.00 0.00 28 1010.8
20260903205525 78 223 10.0 13.0 0.00 0.00 0.00 28 1010.8
20260903205020 78 221 8.0 14.0 0.00 0.00 0.00 28 1010.7
20260903204516 78 274 6.0 18.0 0.00 0.00 0.00 29 1010.9
20260903204011 78 287 9.0 19.0 0.00 0.00 0.00 28 1010.8
20260903203507 77 244 13.0 26.0 0.00 0.00 0.00 28 1010.9
20260903203006 77 241 10.0 13.0 0.00 0.00 0.00 29 1010.8
20260903202503 78 236 17.0 23.0 0.00 0.00 0.00 28 1010.9
20260903201957 77 234 15.0 21.0 0.00 0.00 0.00 28 1010.8
20260903201452 78 222 15.0 24.0 0.00 0.00 0.00 29 1010.9
20260903200951 78 237 12.0 19.0 0.00 0.00 0.00 28 1011.0
20260903200447 77 230 9.0 24.0 0.00 0.00 0.00 29 1010.9
20260903195941 77 240 13.0 21.0 0.00 0.00 0.00 29 1010.9